Starlink 32005

operational
NORAD ID: 60034 Int'l Des: 2024-111 Owner: SPXS Country: US Constellation: starlink
LEOCIRCULAR

Starlink 32005について

説明を読み込み中...

リアルタイム位置

3D地球を読み込み中...

次回通過

高度履歴

Altitude vs Time

uPlot chart will show altitude changes over time

軌道要素

1 60034U 24111U 25352.56343175 -.00000277 00000-0 27761-5 0 9998
2 60034 53.1604 92.3824 0001059 83.0851 277.0271 15.30192625 86512
Epoch: Dec 18, 2025 • Age: 28 hours

現在のステータス

高度 494.1 km
速度 7.62 km/s
衛星直下点 -52.39°S, 5.91°W
打ち上げ日 Jun 8, 2024
運用期間 1.5 years
タイプ internet

技術仕様

分類 Payload
質量 730.00 kg
乾燥質量 700.00 kg
総質量 730.00 kg
長さ 0.30 m
直径 4.10 m
スパン 29.00 m
形状 Box + pan
製造者 SPXS
バスタイプ Starlink V2M
フェーズステータス In Orbit
所有者/国 SPXS/US

大規模コンステレーション

Loading constellations...